Regional Weather Roundup
Issued by NWS

Home | Current Version | Previous Version | Text Only | Print | Product List | Glossary On
Versions: 1 2 3 4 5 6 7 8 9 10 11 12 13 14 15 16 17 18 19 20 21 22 23 24 25 26 27 28 29 30 31 32 33 34 35 36 37 38 39 40 41 42 43 44 45 46 47 48 49 50
000
ASUS45 KPSR 301710
RWRAZ

ARIZONA REGIONAL HOURLY WEATHER ROUNDUP
NATIONAL WEATHER SERVICE PHOENIX AZ
1000 AM MST WED JUL 30 2014

NOTE: FAIR INDICATES FEW OR NO CLOUDS BELOW 12,000 FEET WITH NO
SIGNIFICANT WEATHER AND/OR OBSTRUCTIONS TO VISIBILITY.

AZZ001>003-036-301800-
NORTHWEST ARIZONA

CITY           SKY/WX    TMP DP  RH WIND       PRES   REMARKS
BULLHEAD CITY  FAIR     100  57  23 N14       29.87S
KINGMAN        FAIR      90  49  24 CALM      30.08S
$$

AZZ004>008-015-016-018-301800-
NORTH CENTRAL ARIZONA

CITY           SKY/WX    TMP DP  RH WIND       PRES   REMARKS
GRAND CANYON   PTSUNNY   78  47  33 W5        30.32S
WILLIAMS       FAIR      75  48  38 SW6       30.39F
PRESCOTT       FAIR      84  47  27 NW6       30.21F
FLAGSTAFF      PTSUNNY   74  47  38 VRB6      30.36S
PAYSON         FAIR      84  50  30 NW9       30.24S
PAGE           FAIR      84  52  33 VRB5      30.15S
$$

AZZ009>014-017-301800-
NORTHEAST ARIZONA

CITY           SKY/WX    TMP DP  RH WIND       PRES   REMARKS
WINSLOW        FAIR      88  51  28 W6        30.20S
SAINT JOHNS    FAIR      82  49  31 SW7       30.24F
WINDOW ROCK    FAIR      80  48  32 NW6       30.31S
SHOW LOW       FAIR      77  46  33 CALM      30.34S
$$

AZZ023-301800-
GREATER PHOENIX AREA

CITY           SKY/WX    TMP DP  RH WIND       PRES   REMARKS
PHOENIX        FAIR     101  54  20 CALM      29.89S
BUCKEYE          N/A     97  57  26 SE6       29.90S
GLENDALE       MOSUNNY   99  55  23 SW7       29.91S
LUKE AFB       NOT AVBL
DEER VALLEY    FAIR      97  54  23 SW6       29.91S
SCOTTSDALE     FAIR      97  55  24 VRB3      29.94R
MESA-FALCON    MOSUNNY   99  55  23 S6        29.92S
MESA-GATEWAY   MOSUNNY   99  55  23 E5        29.94S
CHANDLER       MOSUNNY   99  57  25 E5        29.92S
$$

AZZ027-028-301800-
SOUTHWEST MARICOPA COUNTY AND PINAL COUNTY

CITY           SKY/WX    TMP DP  RH WIND       PRES   REMARKS
CASA GRANDE    FAIR      99  57  25 CALM      29.94S
GILA BEND      MOSUNNY  104  52  17 VRB3      29.90S HX 101
$$

AZZ503-504-507>509-301800-
SOUTHEAST ARIZONA

CITY           SKY/WX    TMP DP  RH WIND       PRES   REMARKS
TUCSON         FAIR      95  55  26 VRB3      30.05S
DAVIS-MONTHAN  FAIR      93  56  28 VRB2      30.04R
RYAN FIELD       N/A     95  55  26 CALM      30.03S
NOGALES        FAIR      89  57  33 SW6       30.14S
SIERRA VISTA   PTSUNNY   86  55  35 E5        30.21S
DOUGLAS        FAIR      83  64  52 VRB6      30.17S
SAFFORD        FAIR      90  55  30 VRB3      30.06S
$$

AZZ020-021-025-026-031-301800-
SOUTHWEST ARIZONA

CITY           SKY/WX    TMP DP  RH WIND       PRES   REMARKS
YUMA           FAIR     104  51  17 NW6       29.83F HX 101
$$

CAZ031-033-041-043-047-048-061-301800-
SOUTHERN CALIFORNIA

CITY           SKY/WX    TMP DP  RH WIND       PRES   REMARKS
DOWNTOWN L.A.  FAIR      80  61  52 CALM      29.95F
L.A. AIRPORT   FAIR      76  62  62 W6        29.97S
SAN DIEGO      FAIR      76  65  68 W7        29.98R
BURBANK        FAIR      80  56  43 S6        29.97F
ONTARIO        FAIR      83  56  39 SW7       29.98S
RIVERSIDE      FAIR      83  55  38 W3        29.97S
PALM SPRINGS   FAIR     100  48  17 CALM      29.86F
EL CENTRO NAS  FAIR     103  45  14 NW5       29.82S
IMPERIAL       FAIR     102  49  16 W6        29.82S
BLYTHE           N/A    N/A N/A N/A MISG      29.84S
NEEDLES        FAIR     101  52  19 NW3       29.88F
$$

NVZ020-UTZ003-301800-
SOUTHERN NEVADA-UTAH

CITY           SKY/WX    TMP DP  RH WIND       PRES   REMARKS
LAS VEGAS      FAIR      94  54  25 VRB6      29.96S
SALT LAKE CITY LGT RAIN  69  62  78 NW8       30.20S
$$

NMZ009-TXZ055-301800-
NEW MEXICO-WEST TEXAS

CITY           SKY/WX    TMP DP  RH WIND       PRES   REMARKS
ALBUQUERQUE    FAIR      77  57  50 VRB3      30.23F
EL PASO        FAIR      89  58  34 VRB5      30.11S
$$


........................KEY........................
SKY/WX - SKY CONDITION/WEATHER
TMP    - TEMPERATURE IN FAHRENHEIT
DP     - DEW POINT IN FAHRENHEIT
RH     - RELATIVE HUMIDITY IN PERCENT
WIND   - DIRECTION AND SPEED IN MILES PER HOUR (MPH)
VRB    - VARIABLE WIND DIRECTION
PRES   - MEAN SEA LEVEL PRESSURE IN INCHES OF MERCURY
         F - FALLING PRESSURE   R - RISING PRESSURE
         S - STEADY PRESSURE
VSB    - VISIBILITY IN MILES
HX     - HEAT INDEX IN FAHRENHEIT
WCI    - WIND CHILL INDEX IN FAHRENHEIT
TC     - TEMPERATURE IN CELSIUS WHICH IS ALSO KNOWN AS
         TEMPERATURE IN CENTIGRADE
AFB    - AIR FORCE BASE
         LUKE AFB IS LUKE AIR FORCE BASE
         DAVIS-MONTHAN IS DAVIS-MONTHAN AIR FORCE BASE
NAS    - NAVAL AIR STATION
         EL CENTRO NAS IS EL CENTRO NAVAL AIR STATION
N/A    - NOT AVAILABLE


USA.gov is the U.S. government's official web portal to all federal, state and local government web resources and services.